Home > Weather > Schönebeck > Past weeks

Flag for Germany Past Weather in Schönebeck, Saxony-Anhalt, Germany — Yesterday and Last 2 Weeks

Now
61 °F

Clear.


Feels Like: 61 °F
Forecast: 61 / 79 °F
Wind: 5 mph from East

Location: Leipzig-Schkeuditz

Current Time: May 29, 2016 at 5:52:56 AM

Latest Report: May 29, 2016 at 5:20 AM


Visibility: 10 mi

Pressure: 29.77 "Hg

Humidity: 88%

Dew Point: 57 °F

Location of SchönebeckLocation

Past Weather in Schönebeck — Graph

°F

Schönebeck Temperature Yesterday

Maximum temperature yesterday: 75 °F (at 3:50 PM)
Minimum temperature yesterday: 54 °F (at 3:50 AM)
Average temperature yesterday: 65 °F

High & Low Weather Summary for the Past Weeks

 TemperatureHumidityPressure
High82 °F (May 22, 2:50 PM)100% (May 23, 9:20 PM)30.07 "Hg (May 23, 9:20 PM)
Low37 °F (May 15, 2:20 AM)28% (May 22, 3:20 PM)29.62 "Hg (May 14, 4:20 AM)
Average57 °F73%29.93 "Hg
* Reported May 14 4:20 AM — May 29 4:20 AM, Schönebeck, Weather by CustomWeather, © 2016

Note: Actual official high and low records may vary slightly from our data, if they occured in-between our weather recording intervals... More about our weather records

Advertising

Schönebeck Weather History for the Previous 24 Hours

Scroll right to see more
 ConditionsComfort  
Time TempWeatherWind HumidityBarometerVisibility
4:20 AM
Sun, May 29
61 °FClear.7 mph88%29.80 "Hg10 mi
3:50 AM61 °FClear.8 mph88%29.80 "Hg10 mi
3:20 AM63 °FClear.8 mph83%29.80 "Hg10 mi
2:50 AM63 °FClear.9 mph83%29.80 "Hg10 mi
2:20 AM63 °FPassing clouds.9 mph83%29.80 "HgN/A
1:50 AM63 °FPassing clouds.8 mph83%29.83 "HgN/A
1:20 AM63 °FClear.7 mph83%29.83 "Hg10 mi
12:50 AM63 °FClear.8 mph83%29.83 "Hg10 mi
12:20 AM64 °FClear.8 mph78%29.83 "Hg10 mi
11:50 PM
Sat, May 28
64 °FClear.7 mph78%29.86 "Hg10 mi
11:20 PM64 °FClear.8 mph78%29.86 "Hg10 mi
10:50 PM64 °FClear.7 mph78%29.86 "Hg10 mi
10:20 PM66 °FPassing clouds.6 mph78%29.86 "HgN/A
9:50 PM66 °FPartly sunny.7 mph78%29.86 "HgN/A
9:20 PM66 °FPartly sunny.6 mph78%29.86 "HgN/A
8:50 PM66 °FSunny.6 mph78%29.86 "Hg10 mi
8:20 PM72 °FBroken clouds.6 mph65%29.86 "HgN/A
7:50 PM72 °FScattered clouds.7 mph61%29.89 "HgN/A
7:20 PM73 °FScattered clouds.8 mph57%29.89 "HgN/A
6:50 PM73 °FScattered clouds.6 mph57%29.89 "HgN/A
6:20 PM75 °FScattered clouds.6 mph50%29.89 "HgN/A
5:50 PM75 °FScattered clouds.7 mph54%29.89 "HgN/A
5:20 PM75 °FScattered clouds.8 mph50%29.89 "HgN/A
4:50 PM75 °FScattered clouds.7 mph54%29.89 "HgN/A
4:20 PM72 °FScattered clouds.7 mph61%29.92 "HgN/A
3:50 PM75 °FScattered clouds.7 mph54%29.92 "HgN/A
3:20 PM73 °FScattered clouds.6 mph53%29.92 "HgN/A
2:50 PM73 °FScattered clouds.6 mph53%29.92 "HgN/A
2:20 PM73 °FPassing clouds.6 mph53%29.92 "HgN/A
1:50 PM72 °FPassing clouds.7 mph61%29.95 "HgN/A
1:20 PM72 °FPassing clouds.6 mph61%29.95 "HgN/A
12:50 PM72 °FPassing clouds.7 mph61%29.95 "HgN/A
12:20 PM70 °FPassing clouds.8 mph60%29.95 "HgN/A
11:50 AM68 °FPassing clouds.8 mph64%29.95 "HgN/A
11:20 AM68 °FScattered clouds.8 mph64%29.98 "HgN/A
10:50 AM68 °FPassing clouds.9 mph64%29.98 "HgN/A
10:20 AM66 °FPassing clouds.7 mph64%29.98 "HgN/A
9:50 AM64 °FPassing clouds.7 mph64%29.98 "HgN/A
9:20 AM64 °FPassing clouds.8 mph68%29.98 "HgN/A
8:50 AM61 °FPassing clouds.7 mph77%29.98 "HgN/A
8:20 AM59 °FSunny.7 mph88%29.98 "Hg10 mi
7:50 AM59 °FClear.5 mph88%30.01 "Hg6 mi
7:20 AM55 °FClear.6 mph100%29.98 "Hg5 mi
6:50 AM55 °FClear.6 mph94%29.98 "Hg4 mi
6:20 AM54 °FFog.5 mph100%29.98 "Hg2 mi
5:50 AM54 °FFog.5 mph100%29.98 "Hg2 mi
5:20 AM54 °FFog.6 mph94%29.98 "Hg2 mi
Weather by CustomWeather, © 2016

See weather overviewHow to use our weather pages